Zurück zum Katalog

COSMOS 1794

AktivNavigationLEO
NORAD 17138·PAYLOAD·🇷🇺 Russia

Gestartet Nov 21, 1986 von Plesetsk Cosmodrome

Loading…

Nächste Überflüge (nächste 24 Stunden)

TLE

AktuellSource: Space-Track

Epoche: Sep 14, 2026, 13:22 UTC

1 17138U 86092A   26257.55748130 -.00000001  00000-0  10563-3 0  9990
2 17138  74.0184 353.7585 0020981 177.3551 193.8533 12.45671172810435

Verfolge COSMOS 1794 in Echtzeit mit AllMySat

Download on the App Store